| time (UTC) | temp F | wind direction | speed MPH | gust MPH | rain 1hr in | rain 24hr in | rain mn in | humidity % | barometer mb |
| 20260505110622 | 55 | 214 | 5.0 | 9.0 | 0.00 | 0.00 | 0.00 | 93 | 1015.3 |
| 20260505101646 | 55 | 222 | 6.0 | 9.0 | 0.00 | 0.00 | 0.00 | 93 | 1014.9 |
| 20260505100622 | 55 | 211 | 5.0 | 10.0 | 0.00 | 0.00 | 0.00 | 94 | 1014.9 |
| 20260505095630 | 55 | 198 | 7.0 | 13.0 | 0.00 | 0.00 | 0.00 | 94 | 1014.9 |
| 20260505094622 | 55 | 203 | 6.0 | 10.0 | 0.00 | 0.00 | 0.00 | 94 | 1014.8 |
| 20260505093629 | 55 | 213 | 6.0 | 14.0 | 0.00 | 0.00 | 0.00 | 93 | 1014.7 |
| 20260505092643 | 55 | 186 | 8.0 | 16.0 | 0.00 | 0.00 | 0.00 | 93 | 1014.6 |
| 20260505091630 | 55 | 222 | 6.0 | 10.0 | 0.00 | 0.00 | 0.00 | 93 | 1014.5 |
| 20260505090642 | 55 | 195 | 6.0 | 9.0 | 0.00 | 0.00 | 0.00 | 93 | 1014.5 |
| 20260505085630 | 55 | 205 | 6.0 | 10.0 | 0.00 | 0.00 | 0.00 | 93 | 1014.5 |
| 20260505084622 | 55 | 222 | 5.0 | 9.0 | 0.00 | 0.00 | 0.00 | 93 | 1014.4 |
| 20260505083630 | 55 | 214 | 7.0 | 11.0 | 0.00 | 0.00 | 0.00 | 93 | 1014.3 |
| 20260505082638 | 55 | 221 | 5.0 | 11.0 | 0.00 | 0.00 | 0.00 | 92 | 1014.3 |
| 20260505081630 | 55 | 191 | 7.0 | 10.0 | 0.00 | 0.00 | 0.00 | 92 | 1014.2 |
| 20260505080622 | 55 | 204 | 5.0 | 9.0 | 0.00 | 0.00 | 0.00 | 92 | 1014.3 |
| 20260505075629 | 56 | 209 | 4.0 | 10.0 | 0.00 | 0.00 | 0.00 | 91 | 1014.2 |
| 20260505074622 | 56 | 202 | 4.0 | 7.0 | 0.00 | 0.00 | 0.00 | 91 | 1014.1 |
| 20260505073631 | 56 | 213 | 3.0 | 7.0 | 0.00 | 0.00 | 0.00 | 91 | 1014.0 |
| 20260505072622 | 56 | 212 | 5.0 | 8.0 | 0.00 | 0.00 | 0.00 | 91 | 1013.9 |
| 20260505071630 | 56 | 215 | 5.0 | 9.0 | 0.00 | 0.00 | 0.00 | 90 | 1013.8 |
| 20260505070622 | 56 | 223 | 4.0 | 8.0 | 0.00 | 0.00 | 0.00 | 90 | 1013.6 |
| 20260505065630 | 57 | 198 | 3.0 | 9.0 | 0.00 | 0.00 | 0.00 | 89 | 1013.6 |
| 20260505064622 | 57 | 210 | 4.0 | 7.0 | 0.00 | 0.00 | 0.00 | 89 | 1013.5 |
| 20260505063630 | 57 | 231 | 6.0 | 9.0 | 0.00 | 0.00 | 0.00 | 89 | 1013.4 |
| 20260505062622 | 57 | 215 | 6.0 | 10.0 | 0.00 | 0.00 | 0.00 | 88 | 1013.3 |
| 20260505061711 | 58 | 239 | 6.0 | 13.0 | 0.00 | 0.00 | 0.00 | 88 | 1013.1 |
| 20260505060622 | 58 | 214 | 6.0 | 11.0 | 0.00 | 0.00 | 0.00 | 87 | 1013.0 |
| 20260505055630 | 58 | 193 | 5.0 | 10.0 | 0.00 | 0.00 | 0.00 | 85 | 1012.9 |
| 20260505054622 | 59 | 216 | 6.0 | 10.0 | 0.00 | 0.00 | 0.00 | 85 | 1012.9 |
| 20260505053631 | 59 | 200 | 6.0 | 9.0 | 0.00 | 0.00 | 0.00 | 85 | 1012.8 |
| 20260505052622 | 60 | 195 | 6.0 | 9.0 | 0.00 | 0.00 | 0.00 | 84 | 1012.7 |
| 20260505051630 | 60 | 181 | 6.0 | 11.0 | 0.00 | 0.00 | 0.00 | 83 | 1012.6 |
| 20260505050622 | 61 | 231 | 3.0 | 5.0 | 0.00 | 0.00 | 0.00 | 82 | 1012.6 |
| 20260505041630 | 64 | 261 | 2.0 | 6.0 | 0.00 | 0.00 | 0.00 | 76 | 1011.9 |
| 20260505040659 | 65 | 237 | 2.0 | 5.0 | 0.00 | 0.00 | 0.00 | 75 | 1011.7 |
| 20260505035630 | 66 | 279 | 2.0 | 5.0 | 0.00 | 0.00 | 0.00 | 73 | 1011.6 |
| 20260505034623 | 67 | 310 | 1.0 | 3.0 | 0.00 | 0.00 | 0.00 | 72 | 1011.4 |
| 20260505033650 | 68 | 250 | 3.0 | 6.0 | 0.00 | 0.00 | 0.00 | 70 | 1011.2 |
| 20260505032622 | 68 | 264 | 3.0 | 5.0 | 0.00 | 0.00 | 0.00 | 70 | 1011.1 |
| 20260505031630 | 69 | 261 | 3.0 | 5.0 | 0.00 | 0.00 | 0.00 | 69 | 1011.0 |
| 20260505030622 | 70 | 251 | 2.0 | 3.0 | 0.00 | 0.00 | 0.00 | 65 | 1010.9 |
| 20260505025702 | 72 | 268 | 3.0 | 5.0 | 0.00 | 0.00 | 0.00 | 61 | 1010.8 |
| 20260505024623 | 72 | 268 | 2.0 | 6.0 | 0.00 | 0.00 | 0.00 | 61 | 1010.7 |
| 20260505023630 | 74 | 266 | 2.0 | 2.0 | 0.00 | 0.00 | 0.00 | 59 | 1010.6 |
| 20260505022622 | 73 | 266 | 2.0 | 3.0 | 0.00 | 0.00 | 0.00 | 60 | 1010.5 |
| 20260505021630 | 75 | 249 | 3.0 | 5.0 | 0.00 | 0.00 | 0.00 | 58 | 1010.5 |
| 20260505020622 | 76 | 232 | 2.0 | 5.0 | 0.00 | 0.00 | 0.00 | 57 | 1010.5 |
| 20260505015646 | 77 | 241 | 2.0 | 5.0 | 0.00 | 0.00 | 0.00 | 55 | 1010.5 |
| 20260505014622 | 77 | 220 | 3.0 | 5.0 | 0.00 | 0.00 | 0.00 | 55 | 1010.5 |
| 20260505013630 | 77 | 270 | 3.0 | 6.0 | 0.00 | 0.00 | 0.00 | 54 | 1010.5 |
| 20260505012658 | 78 | 270 | 2.0 | 5.0 | 0.00 | 0.00 | 0.00 | 53 | 1010.6 |
| 20260505011646 | 77 | 244 | 2.0 | 5.0 | 0.00 | 0.00 | 0.00 | 54 | 1010.6 |
| 20260505010622 | 77 | 272 | 2.0 | 5.0 | 0.00 | 0.00 | 0.00 | 54 | 1010.6 |
| 20260505005630 | 78 | 252 | 3.0 | 5.0 | 0.00 | 0.00 | 0.00 | 52 | 1010.7 |
| 20260505004622 | 79 | 239 | 3.0 | 5.0 | 0.00 | 0.00 | 0.00 | 51 | 1010.7 |
| 20260505003631 | 79 | 263 | 2.0 | 5.0 | 0.00 | 0.00 | 0.00 | 49 | 1010.7 |
| 20260505002622 | 79 | 246 | 2.0 | 3.0 | 0.00 | 0.00 | 0.00 | 48 | 1010.7 |
| 20260505001643 | 80 | 235 | 2.0 | 3.0 | 0.00 | 0.00 | 0.00 | 48 | 1010.8 |
| 20260505000643 | 79 | 278 | 3.0 | 3.0 | 0.00 | 0.00 | 0.00 | 48 | 1010.8 |
| 20260504235630 | 79 | 285 | 2.0 | 3.0 | 0.00 | 0.00 | 0.00 | 48 | 1010.8 |
| 20260504234622 | 78 | 244 | 3.0 | 5.0 | 0.00 | 0.00 | 0.00 | 48 | 1010.9 |
| 20260504233631 | 79 | 289 | 2.0 | 5.0 | 0.00 | 0.00 | 0.00 | 47 | 1010.9 |
| 20260504232622 | 79 | 183 | 2.0 | 5.0 | 0.00 | 0.00 | 0.00 | 46 | 1010.9 |
| 20260504231631 | 80 | 244 | 3.0 | 6.0 | 0.00 | 0.00 | 0.00 | 42 | 1010.9 |
| 20260504230623 | 79 | 284 | 3.0 | 5.0 | 0.00 | 0.00 | 0.00 | 41 | 1010.9 |
| 20260504225631 | 79 | 273 | 2.0 | 3.0 | 0.00 | 0.00 | 0.00 | 44 | 1011.1 |
| 20260504224622 | 79 | 256 | 2.0 | 3.0 | 0.00 | 0.00 | 0.00 | 44 | 1011.3 |
| 20260504223630 | 78 | 262 | 3.0 | 5.0 | 0.00 | 0.00 | 0.00 | 45 | 1011.4 |
| 20260504222622 | 78 | 260 | 3.0 | 6.0 | 0.00 | 0.00 | 0.00 | 45 | 1011.5 |
| 20260504221630 | 78 | 290 | 3.0 | 6.0 | 0.00 | 0.00 | 0.00 | 46 | 1011.6 |
| 20260504220622 | 77 | 277 | 3.0 | 5.0 | 0.00 | 0.00 | 0.00 | 49 | 1011.6 |
| 20260504215635 | 76 | 233 | 3.0 | 6.0 | 0.00 | 0.00 | 0.00 | 51 | 1011.8 |
| 20260504214622 | 76 | 261 | 3.0 | 6.0 | 0.00 | 0.00 | 0.00 | 52 | 1011.8 |
| 20260504213631 | 77 | 304 | 3.0 | 6.0 | 0.00 | 0.00 | 0.00 | 50 | 1011.9 |
| 20260504212622 | 76 | 248 | 3.0 | 7.0 | 0.00 | 0.00 | 0.00 | 52 | 1011.9 |
| 20260504211630 | 76 | 257 | 3.0 | 6.0 | 0.00 | 0.00 | 0.00 | 53 | 1012.0 |
| 20260504210622 | 75 | 279 | 3.0 | 7.0 | 0.00 | 0.00 | 0.00 | 56 | 1012.0 |
| 20260504205630 | 74 | 245 | 4.0 | 6.0 | 0.00 | 0.00 | 0.00 | 58 | 1012.1 |
| 20260504204623 | 74 | 252 | 4.0 | 8.0 | 0.00 | 0.00 | 0.00 | 57 | 1012.1 |
| 20260504203651 | 74 | 255 | 3.0 | 6.0 | 0.00 | 0.00 | 0.00 | 56 | 1012.1 |
| 20260504202622 | 74 | 270 | 3.0 | 5.0 | 0.00 | 0.00 | 0.00 | 58 | 1012.1 |
| 20260504201630 | 72 | 287 | 3.0 | 5.0 | 0.00 | 0.00 | 0.00 | 59 | 1012.1 |
| 20260504200642 | 72 | 280 | 3.0 | 5.0 | 0.00 | 0.00 | 0.00 | 60 | 1012.1 |
| 20260504195631 | 72 | 294 | 2.0 | 5.0 | 0.00 | 0.00 | 0.00 | 61 | 1012.1 |
| 20260504194622 | 71 | 274 | 4.0 | 6.0 | 0.00 | 0.00 | 0.00 | 62 | 1012.2 |
| 20260504193711 | 71 | 281 | 3.0 | 5.0 | 0.00 | 0.00 | 0.00 | 61 | 1012.2 |
| 20260504192622 | 70 | 305 | 2.0 | 3.0 | 0.00 | 0.00 | 0.00 | 63 | 1012.3 |
| 20260504191711 | 70 | 300 | 3.0 | 5.0 | 0.00 | 0.00 | 0.00 | 64 | 1012.4 |
| 20260504190623 | 69 | 288 | 3.0 | 6.0 | 0.00 | 0.00 | 0.00 | 64 | 1012.5 |
| 20260504185631 | 70 | 268 | 4.0 | 6.0 | 0.00 | 0.00 | 0.00 | 62 | 1012.5 |
| 20260504184623 | 69 | 304 | 3.0 | 5.0 | 0.00 | 0.00 | 0.00 | 62 | 1012.5 |
| 20260504183631 | 69 | 289 | 3.0 | 5.0 | 0.00 | 0.00 | 0.00 | 62 | 1012.5 |
| 20260504182622 | 70 | 265 | 3.0 | 5.0 | 0.00 | 0.00 | 0.00 | 58 | 1012.5 |
| 20260504181631 | 68 | 283 | 2.0 | 3.0 | 0.00 | 0.00 | 0.00 | 62 | 1012.6 |
| 20260504180622 | 67 | 315 | 1.0 | 3.0 | 0.00 | 0.00 | 0.00 | 63 | 1012.6 |
| 20260504175631 | 67 | 275 | 2.0 | 5.0 | 0.00 | 0.00 | 0.00 | 65 | 1012.6 |
| 20260504174643 | 67 | 291 | 2.0 | 5.0 | 0.00 | 0.00 | 0.00 | 64 | 1012.6 |
| 20260504173646 | 67 | 277 | 2.0 | 5.0 | 0.00 | 0.00 | 0.00 | 65 | 1012.6 |
| 20260504172623 | 66 | 300 | 2.0 | 5.0 | 0.00 | 0.00 | 0.00 | 67 | 1012.6 |
| 20260504171631 | 64 | 251 | 3.0 | 5.0 | 0.00 | 0.00 | 0.00 | 71 | 1012.6 |
| 20260504170622 | 64 | 305 | 3.0 | 5.0 | 0.00 | 0.00 | 0.00 | 70 | 1012.5 |
| 20260504150639 | 55 | 260 | 3.0 | 3.0 | 0.00 | 0.00 | 0.00 | 85 | 1012.0 |
| 20260504140623 | 56 | 330 | 2.0 | 2.0 | 0.00 | 0.00 | 0.00 | 87 | 1011.7 |
| 20260504130623 | 55 | 328 | 0.0 | 1.0 | 0.00 | 0.00 | 0.00 | 85 | 1011.2 |